PTI505 LSGG-LGMK

Flight info

Callsign PTI505
Flight time N/A
Altitude 39000
Route MEDAM DCT NITAM DCT MOGBO DCT LURUT DCT EDUGI DCT RILIM DCT KOFER DCT PINDO DCT SKP UN137 AGAPU
Aircraft B738/M-SDE2E3FGHIRWXY/LB1

Departure

Time 2026-05-06 16:00
Airport Geneva International Airport (LSGG)

Arrival

Time N/A
Airport Mykonos Island National Airport (LGMK)
Time Latitude Longitude Altitude Speed Heading
2026-05-06 15:46 46.22993 6.10512 1419 ft 0 kts 134°
2026-05-06 15:50 46.22993 6.10511 1419 ft 1 kts 134°
2026-05-06 15:50 46.22995 6.10510 1419 ft 0 kts 134°
2026-05-06 15:51 46.22997 6.10506 1419 ft 2 kts 134°
2026-05-06 15:51 46.23009 6.10492 1419 ft 3 kts 150°
2026-05-06 15:51 46.23027 6.10483 1419 ft 3 kts 170°
2026-05-06 15:51 46.23047 6.10482 1419 ft 3 kts 188°
2026-05-06 15:52 46.23058 6.10485 1419 ft 0 kts 200°
2026-05-06 15:53 46.23006 6.10454 1419 ft 10 kts 223°
2026-05-06 15:53 46.22987 6.10359 1419 ft 10 kts 242°
2026-05-06 15:54 46.22979 6.10273 1419 ft 10 kts 313°
2026-05-06 15:54 46.23007 6.10232 1419 ft 1 kts 314°
2026-05-06 15:54 46.23056 6.10167 1419 ft 17 kts 346°
2026-05-06 15:54 46.23144 6.10261 1419 ft 16 kts 50°
2026-05-06 15:55 46.23216 6.10375 1419 ft 15 kts 46°
2026-05-06 15:55 46.23293 6.10488 1419 ft 20 kts 45°
2026-05-06 15:55 46.23401 6.10640 1419 ft 21 kts 37°
2026-05-06 15:55 46.23505 6.10785 1419 ft 20 kts 45°
2026-05-06 15:56 46.23602 6.10928 1419 ft 19 kts 45°
2026-05-06 15:56 46.23702 6.11075 1419 ft 24 kts 45°
2026-05-06 15:56 46.23829 6.11262 1419 ft 25 kts 45°
2026-05-06 15:56 46.23947 6.11436 1419 ft 23 kts 45°
2026-05-06 15:57 46.24057 6.11596 1419 ft 22 kts 45°
2026-05-06 15:57 46.24162 6.11750 1419 ft 21 kts 45°
2026-05-06 15:57 46.24259 6.11896 1419 ft 11 kts 46°
2026-05-06 15:57 46.24292 6.11946 1419 ft 12 kts 45°
2026-05-06 15:58 46.24340 6.11882 1419 ft 13 kts 257°
2026-05-06 15:58 46.24339 6.11872 1419 ft 0 kts 256°
2026-05-06 15:58 46.24330 6.11820 1419 ft 14 kts 256°
2026-05-06 15:58 46.24335 6.11697 1419 ft 5 kts 277°
2026-05-06 15:59 46.24323 6.11658 1419 ft 5 kts 227°
2026-05-06 15:59 46.24243 6.11538 1419 ft 41 kts 225°
2026-05-06 15:59 46.23859 6.10976 1420 ft 114 kts 226°
2026-05-06 15:59 46.23176 6.09971 1639 ft 154 kts 225°
2026-05-06 16:00 46.22416 6.08837 2478 ft 156 kts 225°
2026-05-06 16:00 46.21643 6.07703 3305 ft 163 kts 225°
2026-05-06 16:00 46.20790 6.06452 3820 ft 190 kts 225°
2026-05-06 16:00 46.19793 6.04994 4212 ft 219 kts 225°
2026-05-06 16:01 46.18650 6.03323 4631 ft 245 kts 225°
2026-05-06 16:01 46.17394 6.01486 5116 ft 268 kts 225°
2026-05-06 16:01 46.16068 5.99547 6036 ft 276 kts 225°
2026-05-06 16:01 46.14664 5.97520 6781 ft 294 kts 225°
2026-05-06 16:02 46.13145 5.95412 7427 ft 313 kts 219°
2026-05-06 16:02 46.11226 5.93837 7955 ft 333 kts 200°
2026-05-06 16:02 46.08847 5.93296 8552 ft 351 kts 179°
2026-05-06 16:02 46.06462 5.93971 9391 ft 360 kts 161°
2026-05-06 16:03 46.04235 5.95756 10414 ft 363 kts 146°
2026-05-06 16:03 46.02404 5.98146 11687 ft 355 kts 138°
2026-05-06 16:03 46.00634 6.00555 12991 ft 347 kts 139°
2026-05-06 16:03 45.98876 6.02948 13971 ft 350 kts 139°
2026-05-06 16:04 45.97093 6.05369 14795 ft 355 kts 139°
2026-05-06 16:04 45.95293 6.07814 15613 ft 359 kts 139°
2026-05-06 16:04 45.93474 6.10285 16428 ft 362 kts 139°
2026-05-06 16:04 45.91629 6.12788 17199 ft 366 kts 139°
2026-05-06 16:05 45.89742 6.15280 17955 ft 370 kts 141°
2026-05-06 16:05 45.87798 6.17744 18702 ft 373 kts 141°
2026-05-06 16:05 45.85831 6.20212 19444 ft 377 kts 142°
2026-05-06 16:05 45.83848 6.22695 20157 ft 380 kts 142°
2026-05-06 16:06 45.81849 6.25197 20861 ft 383 kts 142°
2026-05-06 16:06 45.79826 6.27726 21539 ft 387 kts 142°
2026-05-06 16:06 45.77786 6.30275 22187 ft 390 kts 142°
2026-05-06 16:06 45.75741 6.32829 22824 ft 393 kts 143°
2026-05-06 16:07 45.73670 6.35412 23416 ft 396 kts 143°
2026-05-06 16:07 45.71579 6.38018 24013 ft 399 kts 143°
2026-05-06 16:07 45.69480 6.40632 24553 ft 403 kts 143°
2026-05-06 16:07 45.67353 6.43278 25059 ft 407 kts 143°
2026-05-06 16:08 45.65216 6.45952 25561 ft 411 kts 143°
2026-05-06 16:08 45.63069 6.48664 26040 ft 414 kts 143°
2026-05-06 16:08 45.60885 6.51403 26520 ft 418 kts 144°
2026-05-06 16:08 45.58691 6.54142 26968 ft 421 kts 144°
2026-05-06 16:09 45.56475 6.56900 27411 ft 424 kts 144°
2026-05-06 16:09 45.54275 6.59633 27828 ft 428 kts 144°
2026-05-06 16:09 45.51985 6.62473 28270 ft 430 kts 145°
2026-05-06 16:09 45.49722 6.65300 28667 ft 434 kts 144°
2026-05-06 16:10 45.47446 6.68142 29077 ft 436 kts 145°
2026-05-06 16:10 45.45158 6.70976 29450 ft 439 kts 146°
2026-05-06 16:10 45.42845 6.73828 29815 ft 441 kts 146°
2026-05-06 16:10 45.40516 6.76690 30190 ft 443 kts 146°
2026-05-06 16:11 45.38168 6.79573 30532 ft 446 kts 146°
2026-05-06 16:11 45.35813 6.82462 30853 ft 448 kts 146°
2026-05-06 16:11 45.33442 6.85367 31179 ft 450 kts 146°
2026-05-06 16:11 45.31074 6.88269 31619 ft 449 kts 146°
2026-05-06 16:12 45.28703 6.91174 32070 ft 448 kts 146°
2026-05-06 16:12 45.26337 6.94078 32456 ft 449 kts 146°
2026-05-06 16:12 45.24804 6.96058 32711 ft 451 kts 143°
2026-05-06 16:12 45.22550 6.99222 33135 ft 452 kts 142°
2026-05-06 16:13 45.20342 7.02363 33529 ft 451 kts 142°
2026-05-06 16:13 45.18122 7.05449 33920 ft 449 kts 143°
2026-05-06 16:13 45.15882 7.08538 34300 ft 449 kts 143°
2026-05-06 16:13 45.13611 7.11660 34656 ft 449 kts 143°
2026-05-06 16:14 45.11414 7.14815 34943 ft 454 kts 139°
2026-05-06 16:14 45.09365 7.18337 35318 ft 458 kts 134°
2026-05-06 16:14 45.07504 7.22015 35655 ft 461 kts 131°
2026-05-06 16:14 45.05680 7.25749 35937 ft 461 kts 131°
2026-05-06 16:15 45.03845 7.29460 36290 ft 460 kts 131°
2026-05-06 16:15 45.02008 7.33154 36582 ft 461 kts 131°
2026-05-06 16:15 45.00235 7.36953 36860 ft 466 kts 126°
2026-05-06 16:15 44.98818 7.41086 37192 ft 472 kts 118°
2026-05-06 16:16 44.97829 7.45573 37461 ft 480 kts 109°
2026-05-06 16:16 44.97142 7.50122 37735 ft 482 kts 106°
2026-05-06 16:16 44.96568 7.54868 38062 ft 483 kts 104°
2026-05-06 16:16 44.96029 7.59619 38321 ft 483 kts 104°
2026-05-06 16:17 44.95501 7.64233 38582 ft 483 kts 104°
2026-05-06 16:17 44.94953 7.68966 38838 ft 483 kts 104°
2026-05-06 16:17 44.94412 7.73602 39058 ft 484 kts 104°
2026-05-06 16:17 44.93858 7.78334 39338 ft 483 kts 104°
2026-05-06 16:18 44.93308 7.83001 39566 ft 483 kts 104°
2026-05-06 16:18 44.92760 7.87634 39779 ft 483 kts 104°
2026-05-06 16:18 44.92236 7.92324 40004 ft 484 kts 103°
2026-05-06 16:18 44.91720 7.97025 40253 ft 483 kts 103°
2026-05-06 16:19 44.91191 8.01711 40437 ft 484 kts 103°
2026-05-06 16:19 44.90653 8.06409 40621 ft 485 kts 103°
2026-05-06 16:19 44.90108 8.11100 40762 ft 486 kts 103°
2026-05-06 16:19 44.89557 8.15796 40773 ft 487 kts 103°
2026-05-06 16:20 44.88435 8.25274 40788 ft 484 kts 104°
2026-05-06 16:20 44.87318 8.34616 40798 ft 482 kts 104°
2026-05-06 16:21 44.86195 8.43932 40806 ft 483 kts 104°
2026-05-06 16:21 44.85063 8.53255 40818 ft 483 kts 104°
2026-05-06 16:22 44.83912 8.62661 40828 ft 483 kts 104°
2026-05-06 16:22 44.82768 8.71941 40837 ft 483 kts 104°
2026-05-06 16:23 44.81468 8.81253 40837 ft 479 kts 110°
2026-05-06 16:23 44.79258 8.90063 40847 ft 475 kts 116°
2026-05-06 16:24 44.76796 8.98697 40851 ft 475 kts 117°
2026-05-06 16:24 44.74312 9.07325 40844 ft 475 kts 117°
2026-05-06 16:25 44.71829 9.15913 40841 ft 475 kts 117°
2026-05-06 16:25 44.69314 9.24579 40837 ft 475 kts 117°
2026-05-06 16:26 44.66821 9.33219 40831 ft 476 kts 116°
2026-05-06 16:26 44.64372 9.41858 40827 ft 476 kts 116°
2026-05-06 16:27 44.61889 9.50498 40824 ft 476 kts 117°
2026-05-06 16:27 44.59412 9.59041 40827 ft 476 kts 117°
2026-05-06 16:28 44.56890 9.67696 40827 ft 476 kts 117°
2026-05-06 16:28 44.54377 9.76280 40830 ft 476 kts 117°
2026-05-06 16:29 44.51870 9.84811 40835 ft 476 kts 117°
2026-05-06 16:29 44.49340 9.93389 40840 ft 476 kts 117°
2026-05-06 16:30 44.47216 10.00570 40847 ft 476 kts 117°
2026-05-06 16:30 44.44262 10.10520 40864 ft 476 kts 117°
2026-05-06 16:31 44.41713 10.19074 40874 ft 476 kts 117°
2026-05-06 16:31 44.39160 10.27613 40885 ft 476 kts 117°
2026-05-06 16:32 44.36605 10.36129 40899 ft 476 kts 117°
2026-05-06 16:32 44.34075 10.44537 40913 ft 475 kts 117°
2026-05-06 16:33 44.31468 10.53169 40929 ft 475 kts 117°
2026-05-06 16:34 44.27606 10.65906 40950 ft 475 kts 117°
2026-05-06 16:34 44.25022 10.74389 40959 ft 474 kts 118°
2026-05-06 16:35 44.22455 10.82791 40956 ft 474 kts 118°
2026-05-06 16:35 44.19866 10.91240 40948 ft 474 kts 118°
2026-05-06 16:36 44.17269 10.99683 40939 ft 473 kts 118°
2026-05-06 16:36 44.14659 11.08142 40928 ft 472 kts 118°
2026-05-06 16:37 44.12504 11.15106 40919 ft 472 kts 118°
2026-05-06 16:37 44.09454 11.24931 40908 ft 472 kts 118°
2026-05-06 16:38 44.06843 11.33312 40899 ft 471 kts 118°
2026-05-06 16:38 44.04229 11.41675 40891 ft 471 kts 118°
2026-05-06 16:39 44.01613 11.50016 40892 ft 471 kts 118°
2026-05-06 16:39 43.99437 11.56937 40897 ft 471 kts 118°
2026-05-06 16:40 43.96800 11.65298 40899 ft 471 kts 118°
2026-05-06 16:40 43.94212 11.73477 40900 ft 471 kts 118°
2026-05-06 16:41 43.91528 11.81934 40900 ft 471 kts 119°
2026-05-06 16:41 43.88885 11.90233 40903 ft 470 kts 119°
2026-05-06 16:42 43.86231 11.98542 40904 ft 470 kts 119°
2026-05-06 16:42 43.83575 12.06832 40905 ft 470 kts 119°
2026-05-06 16:43 43.80915 12.15107 40911 ft 470 kts 119°
2026-05-06 16:43 43.78249 12.23374 40913 ft 471 kts 119°
2026-05-06 16:44 43.75569 12.31659 40906 ft 471 kts 119°
2026-05-06 16:44 43.72885 12.39931 40900 ft 471 kts 119°
2026-05-06 16:45 43.70198 12.48185 40901 ft 471 kts 119°
2026-05-06 16:45 43.67489 12.56484 40904 ft 471 kts 119°
2026-05-06 16:46 43.64800 12.64694 40908 ft 471 kts 119°
2026-05-06 16:46 43.62088 12.72948 40914 ft 472 kts 119°
2026-05-06 16:47 43.59373 12.81187 40922 ft 472 kts 119°
2026-05-06 16:47 43.56644 12.89444 40923 ft 472 kts 119°
2026-05-06 16:48 43.53913 12.97677 40927 ft 472 kts 119°
2026-05-06 16:48 43.51176 13.05907 40930 ft 472 kts 119°
2026-05-06 16:49 43.48448 13.14085 40932 ft 472 kts 119°
2026-05-06 16:49 43.45706 13.22281 40932 ft 471 kts 119°
2026-05-06 16:50 43.42956 13.30472 40933 ft 471 kts 119°
2026-05-06 16:50 43.40187 13.38696 40934 ft 471 kts 119°
2026-05-06 16:51 43.37426 13.46873 40936 ft 471 kts 119°
2026-05-06 16:51 43.34663 13.55032 40936 ft 471 kts 120°
2026-05-06 16:52 43.32018 13.62817 40937 ft 471 kts 120°
2026-05-06 16:52 43.29221 13.71026 40935 ft 471 kts 120°
2026-05-06 16:53 43.26440 13.79165 40939 ft 472 kts 120°
2026-05-06 16:53 43.23640 13.87332 40940 ft 475 kts 120°
2026-05-06 16:54 43.20806 13.95577 40942 ft 479 kts 120°
2026-05-06 16:54 43.17957 14.03837 40943 ft 478 kts 120°
2026-05-06 16:55 43.15110 14.12069 40944 ft 478 kts 120°
2026-05-06 16:55 43.12273 14.20248 40941 ft 478 kts 120°
2026-05-06 16:56 43.09419 14.28450 40932 ft 478 kts 120°
2026-05-06 16:56 43.06551 14.36667 40930 ft 478 kts 120°
2026-05-06 16:57 43.03684 14.44858 40930 ft 478 kts 120°
2026-05-06 16:57 43.00808 14.53051 40930 ft 479 kts 120°
2026-05-06 16:58 42.97899 14.61312 40929 ft 478 kts 120°
2026-05-06 16:58 42.95025 14.69449 40930 ft 478 kts 120°
2026-05-06 16:59 42.92128 14.77628 40930 ft 479 kts 120°
2026-05-06 16:59 42.89222 14.85809 40931 ft 479 kts 120°
2026-05-06 17:00 42.86325 14.93940 40932 ft 479 kts 120°
2026-05-06 17:00 42.83395 15.02141 40933 ft 479 kts 120°
2026-05-06 17:01 42.80471 15.10300 40935 ft 479 kts 120°
2026-05-06 17:01 42.77547 15.18432 40936 ft 479 kts 120°
2026-05-06 17:02 42.74616 15.26564 40949 ft 479 kts 120°
2026-05-06 17:02 42.71674 15.34702 40954 ft 478 kts 120°
2026-05-06 17:03 42.68733 15.42813 40961 ft 479 kts 120°
2026-05-06 17:03 42.65782 15.50928 40967 ft 479 kts 120°
2026-05-06 17:04 42.62818 15.59056 40980 ft 479 kts 120°
2026-05-06 17:04 42.59848 15.67177 40988 ft 480 kts 120°
2026-05-06 17:05 42.56888 15.75248 40991 ft 480 kts 120°
2026-05-06 17:05 42.53892 15.83391 40994 ft 480 kts 120°
2026-05-06 17:06 42.50922 15.91442 40993 ft 480 kts 120°
2026-05-06 17:06 42.47933 15.99522 41000 ft 480 kts 120°
2026-05-06 17:07 42.44930 16.07616 41005 ft 481 kts 120°
2026-05-06 17:07 42.41919 16.15709 41005 ft 481 kts 120°
2026-05-06 17:08 42.38905 16.23786 41005 ft 481 kts 120°
2026-05-06 17:08 42.35987 16.31585 41005 ft 481 kts 120°
2026-05-06 17:09 42.32962 16.39648 41008 ft 481 kts 120°
2026-05-06 17:09 42.29934 16.47694 41008 ft 481 kts 120°
2026-05-06 17:10 42.26897 16.55742 41008 ft 480 kts 120°
2026-05-06 17:10 42.23859 16.63772 41007 ft 480 kts 120°
2026-05-06 17:11 42.20817 16.71788 41009 ft 480 kts 120°
2026-05-06 17:11 42.17790 16.79743 41015 ft 479 kts 120°
2026-05-06 17:12 42.14722 16.87784 41027 ft 479 kts 120°
2026-05-06 17:12 42.11661 16.95782 41032 ft 480 kts 120°
2026-05-06 17:13 42.09122 17.02402 41033 ft 479 kts 120°
2026-05-06 17:13 42.05558 17.11666 41033 ft 479 kts 120°
2026-05-06 17:14 42.02985 17.18339 41033 ft 479 kts 121°
2026-05-06 17:14 41.99934 17.26226 41033 ft 480 kts 120°
2026-05-06 17:15 41.96821 17.34255 41033 ft 481 kts 120°
2026-05-06 17:15 41.93717 17.42237 41029 ft 481 kts 120°
2026-05-06 17:16 41.90619 17.50182 41029 ft 481 kts 120°
2026-05-06 17:16 41.87515 17.58123 41030 ft 480 kts 120°
2026-05-06 17:17 41.84408 17.66047 41030 ft 480 kts 120°
2026-05-06 17:17 41.81291 17.73977 41030 ft 480 kts 120°
2026-05-06 17:18 41.78173 17.81887 41030 ft 480 kts 120°
2026-05-06 17:18 41.75045 17.89801 41031 ft 480 kts 121°
2026-05-06 17:19 41.71938 17.97640 41035 ft 480 kts 121°
2026-05-06 17:19 41.68801 18.05533 41043 ft 480 kts 121°
2026-05-06 17:20 41.65662 18.13413 41044 ft 480 kts 121°
2026-05-06 17:20 41.62510 18.21302 41055 ft 480 kts 121°
2026-05-06 17:21 41.59356 18.29174 41061 ft 480 kts 121°
2026-05-06 17:21 41.56196 18.37043 41061 ft 481 kts 121°
2026-05-06 17:22 41.53033 18.44897 41061 ft 480 kts 121°
2026-05-06 17:22 41.49862 18.52750 41061 ft 480 kts 121°
2026-05-06 17:23 41.46687 18.60592 41062 ft 480 kts 121°
2026-05-06 17:23 41.43525 18.68379 41063 ft 480 kts 121°
2026-05-06 17:24 41.40319 18.76256 41067 ft 480 kts 121°
2026-05-06 17:24 41.37131 18.84070 41068 ft 480 kts 121°
2026-05-06 17:25 41.33949 18.91847 41071 ft 480 kts 121°
2026-05-06 17:25 41.30745 18.99656 41072 ft 481 kts 121°
2026-05-06 17:26 41.27535 19.07461 41073 ft 480 kts 121°
2026-05-06 17:26 41.24327 19.15240 41075 ft 480 kts 121°
2026-05-06 17:27 41.21111 19.23018 41077 ft 480 kts 121°
2026-05-06 17:27 41.17887 19.30796 41077 ft 480 kts 121°
2026-05-06 17:28 41.14661 19.38560 41079 ft 480 kts 121°
2026-05-06 17:28 41.11407 19.46369 41079 ft 481 kts 121°
2026-05-06 17:29 41.08191 19.54068 41080 ft 480 kts 121°
2026-05-06 17:29 41.04927 19.61861 41082 ft 480 kts 121°
2026-05-06 17:30 41.01686 19.69581 41081 ft 480 kts 121°
2026-05-06 17:30 40.98435 19.77304 41081 ft 480 kts 121°
2026-05-06 17:31 40.95177 19.85027 41081 ft 481 kts 121°
2026-05-06 17:31 40.91912 19.92745 41081 ft 481 kts 121°
2026-05-06 17:32 40.88636 20.00469 41084 ft 481 kts 122°
2026-05-06 17:32 40.85357 20.08182 41085 ft 481 kts 121°
2026-05-06 17:33 40.82080 20.15872 41085 ft 481 kts 121°
2026-05-06 17:33 40.78793 20.23566 41085 ft 481 kts 121°
2026-05-06 17:34 40.75504 20.31247 41085 ft 480 kts 121°
2026-05-06 17:34 40.72217 20.38907 41087 ft 480 kts 121°
2026-05-06 17:35 40.68907 20.46601 41086 ft 481 kts 122°
2026-05-06 17:35 40.65449 20.54150 41071 ft 478 kts 133°
2026-05-06 17:36 40.58962 20.64107 41088 ft 477 kts 133°
2026-05-06 17:36 40.54628 20.70739 41089 ft 477 kts 133°
2026-05-06 17:37 40.50326 20.77307 41090 ft 477 kts 133°
2026-05-06 17:37 40.45990 20.83909 41085 ft 477 kts 133°
2026-05-06 17:38 40.41646 20.90509 41076 ft 478 kts 133°
2026-05-06 17:38 40.37338 20.97153 41075 ft 478 kts 133°
2026-05-06 17:39 40.33009 21.03786 41075 ft 478 kts 133°
2026-05-06 17:39 40.28667 21.10398 41074 ft 479 kts 133°
2026-05-06 17:40 40.24314 21.17000 41076 ft 479 kts 133°
2026-05-06 17:40 40.19946 21.23606 41074 ft 478 kts 133°
2026-05-06 17:41 40.15580 21.30192 41072 ft 479 kts 133°
2026-05-06 17:41 40.11213 21.36767 41071 ft 479 kts 133°
2026-05-06 17:42 40.06840 21.43334 41069 ft 479 kts 133°
2026-05-06 17:42 40.02454 21.49907 41067 ft 480 kts 133°
2026-05-06 17:43 39.98066 21.56469 41066 ft 480 kts 133°
2026-05-06 17:43 39.93671 21.63029 41065 ft 480 kts 133°
2026-05-06 17:44 39.89270 21.69582 41065 ft 480 kts 133°
2026-05-06 17:44 39.84870 21.76120 41064 ft 480 kts 133°
2026-05-06 17:45 39.80468 21.82648 41064 ft 480 kts 133°
2026-05-06 17:45 39.76051 21.89182 41058 ft 480 kts 133°
2026-05-06 17:46 39.71630 21.95710 41055 ft 480 kts 133°
2026-05-06 17:46 39.67239 22.02181 41048 ft 481 kts 133°
2026-05-06 17:47 39.62818 22.08682 41042 ft 481 kts 133°
2026-05-06 17:47 39.58385 22.15186 41040 ft 481 kts 133°
2026-05-06 17:48 39.54666 22.20631 41039 ft 481 kts 133°
2026-05-06 17:48 39.50254 22.27080 41036 ft 481 kts 133°
2026-05-06 17:49 39.45802 22.33575 41034 ft 481 kts 133°
2026-05-06 17:49 39.41354 22.40048 41032 ft 481 kts 133°
2026-05-06 17:50 39.36892 22.46530 41029 ft 482 kts 133°
2026-05-06 17:50 39.32431 22.52996 41027 ft 482 kts 133°
2026-05-06 17:51 39.27966 22.59455 41025 ft 482 kts 133°
2026-05-06 17:51 39.23497 22.65906 41025 ft 482 kts 133°
2026-05-06 17:52 39.19042 22.72323 41024 ft 483 kts 133°
2026-05-06 17:52 39.14557 22.78771 41023 ft 483 kts 133°
2026-05-06 17:53 39.10063 22.85219 41024 ft 483 kts 133°
2026-05-06 17:53 39.05563 22.91660 41025 ft 483 kts 133°
2026-05-06 17:54 39.01062 22.98091 41026 ft 484 kts 133°
2026-05-06 17:54 38.96553 23.04520 41027 ft 484 kts 133°
2026-05-06 17:55 38.92046 23.10933 41028 ft 484 kts 133°
2026-05-06 17:55 38.87621 23.17434 41029 ft 484 kts 130°
2026-05-06 17:56 38.83344 23.24093 41030 ft 484 kts 130°
2026-05-06 17:56 38.79042 23.30768 41031 ft 484 kts 130°
2026-05-06 17:57 38.74743 23.37422 41032 ft 484 kts 130°
2026-05-06 17:57 38.70444 23.44060 41034 ft 484 kts 130°
2026-05-06 17:58 38.66153 23.50716 41036 ft 485 kts 130°
2026-05-06 17:58 38.61866 23.57390 41044 ft 486 kts 130°
2026-05-06 17:59 38.57593 23.63997 41045 ft 471 kts 130°
2026-05-06 17:59 38.55531 23.67174 41042 ft 458 kts 131°
2026-05-06 17:59 38.53518 23.70272 41043 ft 448 kts 131°
2026-05-06 18:00 38.49572 23.76336 41051 ft 442 kts 131°
2026-05-06 18:00 38.45632 23.82375 41057 ft 444 kts 131°
2026-05-06 18:01 38.41669 23.88438 41060 ft 444 kts 131°
2026-05-06 18:01 38.37715 23.94475 41062 ft 444 kts 131°
2026-05-06 18:02 38.33755 24.00510 41070 ft 444 kts 131°
2026-05-06 18:02 38.29781 24.06556 41074 ft 445 kts 131°
2026-05-06 18:03 38.25803 24.12596 41076 ft 445 kts 131°
2026-05-06 18:03 38.21829 24.18619 41078 ft 445 kts 131°
2026-05-06 18:04 38.17851 24.24637 41077 ft 445 kts 131°
2026-05-06 18:04 38.15873 24.27624 40687 ft 437 kts 131°
2026-05-06 18:04 38.13929 24.30557 39511 ft 442 kts 131°
2026-05-06 18:05 38.11893 24.33627 38038 ft 454 kts 130°
2026-05-06 18:05 38.09838 24.36723 36571 ft 462 kts 130°
2026-05-06 18:05 38.07787 24.39809 35169 ft 468 kts 130°
2026-05-06 18:05 38.05650 24.43023 33758 ft 470 kts 130°
2026-05-06 18:06 38.03537 24.46197 32392 ft 470 kts 130°
2026-05-06 18:06 38.01416 24.49378 30453 ft 479 kts 130°
2026-05-06 18:06 37.99231 24.52650 28419 ft 488 kts 130°
2026-05-06 18:06 37.97023 24.55932 26589 ft 488 kts 130°
2026-05-06 18:07 37.94788 24.59170 24790 ft 486 kts 131°
2026-05-06 18:07 37.92539 24.62306 23499 ft 472 kts 131°
2026-05-06 18:07 37.90448 24.65341 22334 ft 456 kts 128°
2026-05-06 18:07 37.88456 24.68459 21137 ft 442 kts 128°
2026-05-06 18:08 37.86562 24.71414 19987 ft 430 kts 128°
2026-05-06 18:08 37.84671 24.74304 18839 ft 418 kts 129°
2026-05-06 18:08 37.83027 24.76789 18022 ft 413 kts 129°
2026-05-06 18:08 37.81200 24.79529 17627 ft 407 kts 129°
2026-05-06 18:09 37.79404 24.82210 17253 ft 399 kts 129°
2026-05-06 18:09 37.77595 24.84904 16870 ft 391 kts 129°
2026-05-06 18:09 37.75853 24.87491 16441 ft 386 kts 129°
2026-05-06 18:09 37.74103 24.90087 15862 ft 386 kts 129°